Location: Gombori
(14.9797°N, 2.9419°W)
Time: 05:08:37
(UTC+00:00)

COSMOS 1275 DEB - Pass Details

Date: 07 June 2022
Orbit: 837 x 941 km, 83.0° (Epoch: 29 June)

Event Time Altitude Azimuth Distance (km) Brightness Sun altitude
Exits shadow 22:22:10 18° 349° (N) 2,093 ? -43.8°
Drops below altitude 10° 22:23:41 10° 353° (N) 2,632 ? -44.0°
Sets 22:26:12 0° 357° (N) 3,565 ? -44.4°
